User: anonymous   Login
Location: Summit Observatory
(39.5293°N, 75.7290°W)
Time: 21:33:16
(UTC-05:00)
Language:

Gurwin Techsat 1B - Orbit

View from above orbital plane
View from above orbital plane
View from above satellite
View from above satellite

Ground track
Ground track

The orbit data is extracted from the following two-line orbital elements,

1 25397U 98043D   17052.93020737 -.00000008 +00000-0 +15510-4 0  9991
2 25397 098.5984 357.7696 0001365 026.7267 333.3982 14.23615366967177
Epoch (UTC): 21 February 2017 22:19:29
Eccentricity: 0.0001365
inclination: 98.5984°
perigee height: 812 km
apogee height: 814 km
right ascension of ascending node: 357.7696°
argument of perigee: 26.7267°
revolutions per day: 14.23615366
mean anomaly at epoch: 333.3982°
orbit number at epoch: 96717

The dashed part of the orbit path shows where the satellite is in the earth's shadow,  

DLR